Regional Weather Roundup
Issued by NWS Burlington, VT

Home | Current Version | Previous Version | Text Only | Print | Product List | Glossary On
Versions: 1 2 3 4 5 6 7 8 9 10 11 12 13 14 15 16 17 18 19 20 21 22 23 24 25 26 27 28 29 30 31 32 33 34 35 36 37 38 39 40 41 42 43 44 45 46 47 48 49 50
000
ASUS41 KBTV 302030
RWRBTV
VERMONT REGIONAL WEATHER ROUNDUP
NATIONAL WEATHER SERVICE BURLINGTON VT
400 PM EDT SAT AUG 30 2014

NOTE: "FAIR" INDICATES FEW OR NO CLOUDS BELOW 12,000 FEET WITH NO
SIGNIFICANT WEATHER AND/OR OBSTRUCTIONS TO VISIBILITY.

* THESE REPORTS ARE NOT UNDER NWS QUALITY CONTROL AND/OR DO NOT
  REPORT WEATHER SUCH AS PRECIPITATION AND FOG.

VTZ001>019-302100-
_____VERMONT_____


CITY           SKY/WX    TMP DP  RH WIND       PRES   REMARKS
BURLINGTON     MOCLDY    80  57  45 S18G28    30.06F
MONTPELIER     PTCLDY    75  54  47 S15       30.14F
MORRISVILLE    MOCLDY    78  55  44 VRB6      30.09F
ST. JOHNSBURY*   N/A     75  56  51 MISG      30.08F
MIDDLEBURY*    FAIR      78  59  50 S12       30.09F
RUTLAND*       CLEAR     77  57  50 S9        30.11F
SPRINGFIELD    CLEAR     76  59  55 S15G21    30.13F
HIGHGATE*      FAIR      78  59  52 S8G18     30.03F
NEWPORT*       FAIR      74  56  54 SW10      30.09F
BENNINGTON     PTCLDY    78  60  53 S10       30.14F
MT. MANSFIELD*   N/A     61 N/A N/A SW7         N/A

_____LAKE CHAMPLAIN_____


CITY           SKY/WX    TMP DP  RH WIND       PRES   REMARKS
BURTON ISLAND*   N/A     73  63  68 S14         N/A
COLCHESTER RF*   N/A    N/A N/A N/A S24         N/A
DIAMOND ISL*     N/A     75  59  57 S21         N/A

$$

NYZ007-026>031-035-052-083-302100-
_____NORTHERN NEW YORK_____


CITY           SKY/WX    TMP DP  RH WIND       PRES   REMARKS
PLATTSBURGH    PTCLDY    77  62  59 S17       30.03F
SARANAC LAKE   PTCLDY    77  57  50 S15G23    30.07F
MASSENA        PTCLDY    81  62  52 S12       30.00F
OGDENSBURG*    CLEAR     82  64  54 SW10      29.98F
POTSDAM*       CLEAR     82  66  57 SW12G17   30.00F
WATERTOWN      PTCLDY    82  61  48 S10G20    30.00F
FT DRUM        PTCLDY    81  55  40 S10       30.02F
ALBANY         PTCLDY    80  58  46 S16G22    30.11F
GLENS FALLS    PTCLDY    77  59  53 S13       30.10F

$$
NHZ002-005-011-302100-
_____NEW HAMPSHIRE_____


CITY           SKY/WX    TMP DP  RH WIND       PRES   REMARKS
LEBANON        CLEAR     78  57  48 SW13      30.12F
KEENE          CLEAR     75  54  46 S15       30.16F
MT WASHINGTON  PTCLDY    52  36  54 W30         N/A
PLYMOUTH       FAIR      76  61  59 S5        30.12F
WHITEFIELD     PTCLDY    76  53  44 SW8       30.12F

$$

_____REGIONAL QUEBEC LOCATIONS_____


CITY           SKY/WX    TMP DP  RH WIND       PRES   REMARKS
MONTREAL       MOCLDY    79  63  57 SE14      30.00F
QUEBEC CITY    LGT RAIN  72  59  64 W12       30.01S
SHERBROOKE     CLEAR     77  55  47 SW10G23   30.07F

_____REGIONAL ONTARIO LOCATIONS_____


CITY           SKY/WX    TMP DP  RH WIND       PRES   REMARKS
OTTAWA         MOCLDY    81  61  50 S12G21    29.97F

______KEY______
VSB  - VISIBILITY IN MILES
WCI  - WIND CHILL INDEX
HX   - HEAT INDEX
$$
NNNN



USA.gov is the U.S. government's official web portal to all federal, state and local government web resources and services.